This demonstration page uses our WeatherBlox Daily Observations layout. Learn more.

Left ArrowRight Arrow

Hourly Observations for June 11, 2022

Temp ( °F °C ) Dew Point ( °F °C ) Humidity (%) Winds ( mph kmh ) Pressure ( in mb ) Visibility ( mi km ) Precip ( " mm )
12:15 am 00:15 Cloudy 68 20 61 16 78 78 Calm 29.94 1014 10 16 0.00 0.00
12:35 am 00:35 Cloudy 70 21 61 16 73 73 Calm 29.93 1014 10 16 0.00 0.00
12:55 am 00:55 Cloudy 68 20 61 16 78 78 SW 6 9 29.93 1014 10 16 0.00 0.00
1:15 am 01:15 Cloudy 68 20 59 15 73 73 SW 6 9 29.93 1014 10 16 0.00 0.00
1:35 am 01:35 Cloudy 68 20 59 15 73 73 SW 3 6 29.94 1014 10 16 0.00 0.00
1:55 am 01:55 Cloudy 68 20 59 15 73 73 SW 5 7 29.93 1014 10 16 0.00 0.00
2:15 am 02:15 Cloudy 68 20 59 15 73 73 SW 5 7 29.93 1014 10 16 0.00 0.00
2:35 am 02:35 Cloudy 68 20 59 15 73 73 WSW 3 6 29.93 1014 10 16 0.00 0.00
2:55 am 02:55 Partly Cloudy 66 19 59 15 78 78 Calm 29.92 1013 10 16 0.00 0.00
3:15 am 03:15 Partly Cloudy 64 18 59 15 83 83 Calm 29.92 1013 10 16 0.00 0.00
3:35 am 03:35 Mostly Cloudy 64 18 59 15 83 83 Calm 29.92 1013 10 16 0.00 0.00
3:55 am 03:55 Mostly Cloudy 66 19 59 15 78 78 WSW 3 6 29.92 1013 10 16 0.00 0.00
4:15 am 04:15 Cloudy 64 18 59 15 83 83 WSW 5 7 29.92 1013 10 16 0.00 0.00
4:35 am 04:35 Cloudy 64 18 59 15 83 83 W 3 6 29.92 1013 10 16 0.00 0.00
4:55 am 04:55 Cloudy 64 18 59 15 83 83 W 3 6 29.92 1013 10 16 0.00 0.00
5:15 am 05:15 Cloudy 64 18 59 15 83 83 Calm 29.92 1013 10 16 0.00 0.00
5:35 am 05:35 Cloudy with Drizzle 64 18 61 16 88 88 W 3 6 29.93 1014 10 16 0.00 0.00
5:55 am 05:55 Cloudy 64 18 59 15 83 83 W 3 6 29.94 1014 10 16 0.00 0.00
6:15 am 06:15 Cloudy with Light Rain 63 17 61 16 94 94 W 6 9 29.95 1014 10 16 0.00 0.00
6:35 am 06:35 Cloudy 63 17 61 16 94 94 WNW 3 6 29.96 1014 10 16 0.00 0.00
6:55 am 06:55 Cloudy with Light Rain 63 17 61 16 94 94 Calm 29.96 1014 10 16 0.01 0.25
7:15 am 07:15 Cloudy with Light Rain 63 17 61 16 94 94 NW 5 7 29.96 1014 10 16 0.00 0.00
7:35 am 07:35 Cloudy with Light Rain 63 17 61 16 94 94 W 5 7 29.97 1015 10 16 0.01 0.25
7:55 am 07:55 Cloudy with Rain 63 17 61 16 94 94 NW 7 11 29.98 1015 10 16 0.01 0.25
8:15 am 08:15 Cloudy with Light Rain 63 17 61 16 94 94 NNW 8 13 29.98 1015 10 16 0.01 0.25
8:35 am 08:35 Cloudy with Light Rain 63 17 61 16 94 94 NW 8 13 29.99 1015 10 16 0.01 0.25
8:55 am 08:55 Cloudy with Light Rain 63 17 61 16 94 94 NNW 5 7 29.99 1015 10 16 0.01 0.25
9:15 am 09:15 Cloudy 63 17 61 16 94 94 NNW 6 9 30.00 1016 10 16 0.01 0.25
9:35 am 09:35 Cloudy 63 17 61 16 94 94 N 3 6 30.00 1016 10 16 0.01 0.25
9:55 am 09:55 Cloudy with Light Rain 63 17 61 16 94 94 N 3 6 30.00 1016 10 16 0.01 0.25
10:15 am 10:15 Cloudy 63 17 61 16 94 94 N 3 6 30.00 1016 10 16 0.00 0.00
10:35 am 10:35 Cloudy with Light Rain 63 17 61 16 94 94 N 3 6 30.00 1016 10 16 0.00 0.00
10:55 am 10:55 Cloudy 64 18 61 16 88 88 NNE 3 6 29.99 1016 10 16 0.00 0.00
11:15 am 11:15 Cloudy with Light Rain 64 18 61 16 88 88 NNE 3 6 29.99 1016 10 16 0.00 0.00
11:35 am 11:35 Cloudy 64 18 61 16 88 88 NE 3 6 29.99 1016 10 16 0.00 0.00
11:55 am 11:55 Cloudy 64 18 61 16 88 88 Calm 29.99 1016 10 16 0.00 0.00
12:15 pm 12:15 Cloudy 64 18 61 16 88 88 Calm 29.99 1016 10 16 0.00 0.00
12:35 pm 12:35 Cloudy 64 18 59 15 83 83 Calm 30.00 1016 10 16 0.00 0.00
12:55 pm 12:55 Cloudy 64 18 61 16 88 88 Calm 29.99 1016 10 16 0.00 0.00
1:15 pm 13:15 Cloudy 66 19 59 15 78 78 NNE 3 6 29.99 1016 10 16 0.00 0.00
1:35 pm 13:35 Cloudy 66 19 59 15 78 78 Calm 29.97 1015 10 16 0.00 0.00
1:55 pm 13:55 Cloudy 66 19 61 16 83 83 SE 6 9 29.97 1015 10 16 0.00 0.00
2:15 pm 14:15 Cloudy 68 20 61 16 78 78 Calm 29.97 1015 10 16 0.00 0.00
2:35 pm 14:35 Cloudy 66 19 61 16 83 83 N 3 6 29.96 1015 10 16 0.00 0.00
2:55 pm 14:55 Cloudy 66 19 61 16 83 83 NE 3 6 29.96 1015 10 16 0.00 0.00
3:15 pm 15:15 Cloudy 68 20 61 16 78 78 NNE 6 9 29.95 1014 10 16 0.00 0.00
3:35 pm 15:35 Cloudy 68 20 61 16 78 78 NNE 5 7 29.94 1014 10 16 0.00 0.00
3:55 pm 15:55 Cloudy 68 20 61 16 78 78 NNE 5 7 29.94 1014 10 16 0.00 0.00
4:15 pm 16:15 Cloudy 68 20 61 16 78 78 NNE 3 6 29.94 1014 10 16 0.00 0.00
4:35 pm 16:35 Cloudy 68 20 59 15 73 73 Calm 29.94 1014 10 16 0.00 0.00
4:55 pm 16:55 Cloudy 68 20 61 16 78 78 Calm 29.94 1014 10 16 0.00 0.00
5:15 pm 17:15 Cloudy 68 20 61 16 78 78 NE 3 6 29.94 1014 10 16 0.00 0.00
5:35 pm 17:35 Cloudy 70 21 61 16 73 73 Calm 29.94 1014 10 16 0.00 0.00
5:55 pm 17:55 Mostly Cloudy 70 21 61 16 73 73 Calm 29.94 1014 10 16 0.00 0.00
6:15 pm 18:15 Cloudy 70 21 61 16 73 73 ENE 3 6 29.94 1014 10 16 0.00 0.00
6:35 pm 18:35 Mostly Cloudy 70 21 61 16 73 73 Calm 29.94 1014 10 16 0.00 0.00
6:55 pm 18:55 Partly Cloudy 70 21 61 16 73 73 E 5 7 29.94 1014 10 16 0.00 0.00
7:15 pm 19:15 Mostly Cloudy 70 21 61 16 73 73 Calm 29.94 1014 10 16 0.00 0.00
7:35 pm 19:35 Cloudy 70 21 61 16 73 73 Calm 29.94 1014 10 16 0.00 0.00
7:55 pm 19:55 Cloudy 70 21 61 16 73 73 ENE 3 6 29.94 1014 10 16 0.00 0.00
8:15 pm 20:15 Cloudy 68 20 61 16 78 78 Calm 29.94 1014 10 16 0.00 0.00
8:35 pm 20:35 Cloudy 68 20 61 16 78 78 Calm 29.94 1014 10 16 0.00 0.00
8:55 pm 20:55 Cloudy 68 20 61 16 78 78 Calm 29.94 1014 10 16 0.00 0.00
9:15 pm 21:15 Cloudy 68 20 63 17 83 83 SE 3 6 29.95 1014 10 16 0.00 0.00
9:35 pm 21:35 Cloudy 68 20 63 17 83 83 SE 3 6 29.95 1014 10 16 0.00 0.00
9:55 pm 21:55 Cloudy 68 20 61 16 78 78 Calm 29.96 1015 10 16 0.00 0.00
10:15 pm 22:15 Cloudy 68 20 63 17 83 83 Calm 29.96 1015 10 16 0.00 0.00
10:35 pm 22:35 Cloudy 68 20 63 17 83 83 Calm 29.97 1015 10 16 0.00 0.00
10:55 pm 22:55 Cloudy 68 20 63 17 83 83 Calm 29.97 1015 10 16 0.00 0.00
11:15 pm 23:15 Cloudy 66 19 63 17 88 88 Calm 29.97 1015 10 16 0.00 0.00
11:35 pm 23:35 Cloudy 66 19 63 17 88 88 Calm 29.97 1015 10 16 0.00 0.00
11:55 pm 23:55 Cloudy 66 19 63 17 88 88 Calm 29.96 1015 10 16 0.00 0.00

Powered by AerisWeather